Weather History for McCook, NE

Change the Weather History Date:

Sunday, February 3, 2013

  Actual Average Record
Temperature  
Mean Temperature 36 °F 28 °F  
Max Temperature 53 °F 42 °F 75 °F (1962)
Min Temperature 18 °F 15 °F -14 °F (1989)
Degree Days  
Heating Degree Days 30    
Moisture  
Dew Point 21 °F    
Average Humidity 60    
Maximum Humidity 85    
Minimum Humidity 31    
Precipitation  
Precipitation 0.00 in 0.02 in 1.00 in (1960)
Month to date precipitation T 0.06  
Year to date precipitation 0.05 0.57  
Sea Level Pressure  
Sea Level Pressure 30.09 in    
Wind  
Wind Speed 9 mph (WSW)    
Max Wind Speed 18 mph    
Max Gust Speed -    
Visibility 10 miles    
Events      
T = Trace of Precipitation, MM = Missing Value Source: NWS Daily Summary

Daily Weather History Graph

Daily Weather History Graph

Search for Another Location

Airport:

Trip Planner

Search our weather history database for the weather conditions in past years. The results will help you decide how hot, cold, wet, or windy it might be!

Date:

Astronomy

Feb. 03, 2013 Rise Set
Actual Time 7:49 AM CST 6:03 PM CST
Civil Twilight 7:20 AM CST 6:32 PM CST
Nautical Twilight 6:48 AM CST 7:04 PM CST
Astronomical Twilight 6:16 AM CST 7:36 PM CST
Moon 1:18 AM CST (2/3) 11:42 AM CST (2/3)
Length of Visible Light 11h 12m
Length of Day
10h 14m
Waning Gibbous, 48% of the Moon is Illuminated
Feb 3
Waning Gibbous
Feb 10
New
Feb 17
First Quarter
Feb 25
Full
Mar 4
Last Quarter

Hourly Weather History & Observations

Time (CST) Temp. Windchill Dew Point Humidity Pressure Visibility Wind Dir Wind Speed Gust Speed Precip Events Conditions
12:53 AM 26.1 °F 16.8 °F 19.0 °F 75% 30.32 in 10.0 mi SW 9.2 mph - N/A   Clear
1:53 AM 26.1 °F 16.8 °F 19.0 °F 75% 30.31 in 10.0 mi WSW 9.2 mph - N/A   Clear
2:53 AM 25.0 °F 14.8 °F 19.0 °F 78% 30.30 in 10.0 mi West 10.4 mph - N/A   Clear
3:53 AM 26.1 °F 17.6 °F 19.0 °F 75% 30.28 in 10.0 mi West 8.1 mph - N/A   Clear
4:53 AM 24.1 °F 15.2 °F 19.0 °F 81% 30.27 in 10.0 mi WSW 8.1 mph - N/A   Clear
5:53 AM 23.0 °F 17.0 °F 18.0 °F 81% 30.27 in 10.0 mi West 4.6 mph - N/A   Clear
6:53 AM 21.0 °F 14.6 °F 17.1 °F 85% 30.27 in 10.0 mi NNW 4.6 mph - N/A   Clear
7:53 AM 19.9 °F 12.1 °F 16.0 °F 85% 30.27 in 10.0 mi WSW 5.8 mph - N/A   Clear
8:53 AM 25.0 °F 20.7 °F 19.9 °F 81% 30.24 in 10.0 mi WSW 3.5 mph - N/A   Clear
9:53 AM 30.9 °F 27.5 °F 21.9 °F 69% 30.22 in 10.0 mi SW 3.5 mph - N/A   Clear
10:53 AM 37.0 °F 30.4 °F 25.0 °F 62% 30.18 in 10.0 mi WSW 9.2 mph - N/A   Clear
11:53 AM 48.9 °F - 23.0 °F 36% 30.12 in 10.0 mi SSW 15.0 mph - N/A   Clear
12:53 PM 52.0 °F - 21.9 °F 31% 30.06 in 10.0 mi South 16.1 mph - N/A   Clear
1:53 PM 52.0 °F - 21.9 °F 31% 30.01 in 10.0 mi SSW 18.4 mph - N/A   Clear
2:53 PM 51.1 °F - 21.0 °F 31% 29.97 in 10.0 mi SSW 16.1 mph - N/A   Clear
3:53 PM 51.1 °F - 21.9 °F 32% 29.94 in 10.0 mi SSW 10.4 mph - N/A   Clear
4:53 PM 48.9 °F - 23.0 °F 36% 29.93 in 10.0 mi South 6.9 mph - N/A   Clear
5:53 PM 45.0 °F 41.2 °F 23.0 °F 42% 29.91 in 10.0 mi South 6.9 mph - N/A   Clear
6:53 PM 42.1 °F 39.2 °F 23.0 °F 47% 29.90 in 10.0 mi SSW 4.6 mph - N/A   Clear
7:53 PM 39.9 °F 35.8 °F 23.0 °F 51% 29.90 in 10.0 mi WSW 5.8 mph - N/A   Clear
8:53 PM 39.9 °F 36.7 °F 23.0 °F 51% 29.89 in 10.0 mi West 4.6 mph - N/A   Clear
9:53 PM 35.1 °F 30.1 °F 24.1 °F 64% 29.90 in 10.0 mi WNW 5.8 mph - N/A   Clear
10:53 PM 32.0 °F 24.8 °F 23.0 °F 69% 29.88 in 10.0 mi West 8.1 mph - N/A   Clear
11:53 PM 30.9 °F 23.5 °F 21.9 °F 69% 29.88 in 10.0 mi WNW 8.1 mph - N/A   Clear